Simultaneous Nadir Overpasses (SNOs) Predictions

Prediction of SNOs between AQUA and NPP Satellite Orbit:

Table of predicted SNOs for the next 14.0 days since TLE Epoch: 9/29/2012
Index Date (AQUA) Time (AQUA) Lat,Lon (AQUA) SZA (AQUA ) Date (NPP) Time (NPP) Lat,Lon (NPP) SZA (NPP ) Distance(km) Time Diff (sec)
1 10/01/2012 14:54:08 76.33,-163.61 99.71 10/01/2012 14:53:03 76.33,-163.66 99.78 1.53 65
2 10/01/2012 15:43:16 -77.25, 7.32 81.34 10/01/2012 15:43:28 -77.25, 7.29 81.34 0.91 12
3 10/04/2012 07:10:41 76.51, -47.16 100.47 10/04/2012 07:09:52 76.50, -47.24 100.53 2.09 49
4 10/04/2012 07:59:51 -77.34, 123.50 80.47 10/04/2012 08:00:19 -77.33, 123.44 80.48 1.53 28
5 10/06/2012 23:27:16 76.68, 69.25 101.25 10/06/2012 23:26:41 76.67, 69.18 101.30 1.97 35
6 10/07/2012 00:16:26 -77.50,-120.01 79.69 10/07/2012 00:17:08 -77.49,-120.06 79.72 1.49 42
7 10/09/2012 15:43:52 76.88,-174.21 101.98 10/09/2012 15:43:29 76.87,-174.25 102.01 1.16 23
8 10/09/2012 16:33:04 -77.60, -3.74 78.86 10/09/2012 16:33:58 -77.60, -3.78 78.89 0.76 54
9 10/12/2012 08:00:29 77.06, -57.71 102.72 10/12/2012 08:00:16 77.06, -57.69 102.73 0.34 13




NCC Satellite Simultaneous Nadir Overpasses (SNOs) Prediction Service
